EW6519 Weather Reports


Display with metric or nautical units.
time (UTC)temp
F
wind
direction
speed
MPH
gust
MPH
rain 1hr
in
rain 24hr
in
rain mn
in
humidity
%
barometer
mb
20260905020033 79 134 0.0 0.0 0.00 0.02 0.02 81 1011.5
20260905014527 79 94 0.0 0.0 0.00 0.02 0.02 82 1011.4
20260905013027 79 94 0.0 0.0 0.00 0.02 0.02 82 1011.3
20260905011526 79 94 0.0 0.0 0.00 0.02 0.02 82 1011.1
20260905010025 79 94 0.0 0.0 0.00 0.02 0.02 82 1011.1
20260905004528 79 94 0.0 0.0 0.00 0.02 0.02 83 1011.1
20260905003025 79 76 0.0 0.0 0.00 0.02 0.02 82 1011.1
20260905001524 79 76 0.0 0.0 0.00 0.02 0.02 82 1011.1
20260905000027 79 76 0.0 0.0 0.00 0.02 0.02 82 1011.1
20260904234529 79 76 0.0 0.0 0.00 0.02 0.02 82 1010.9
20260904233022 79 65 0.0 6.0 0.00 0.02 0.02 83 1010.9
20260904231521 80 351 0.0 0.0 0.00 0.02 0.02 85 1010.7
20260904230021 80 118 0.0 0.0 0.01 0.02 0.02 82 1010.7
20260904224520 80 79 0.0 0.0 0.02 0.02 0.02 80 1010.6
20260904223020 81 126 0.0 0.0 0.02 0.02 0.02 81 1010.4
20260904221518 79 231 0.0 0.0 0.02 0.02 0.02 85 1010.7
20260904220017 79 314 0.0 6.0 0.01 0.01 0.01 84 1011.4
20260904214516 82 267 7.0 17.0 0.00 0.00 0.00 73 1013.3
20260904213015 88 322 6.0 12.0 0.00 0.00 0.00 55 1013.6
20260904211514 94 4 3.0 16.0 0.00 0.00 0.00 48 1011.8
20260904210015 99 164 2.0 7.0 0.00 0.00 0.00 44 1010.9
20260904204510 99 274 0.0 4.0 0.00 0.00 0.00 47 1011.3
20260904203010 98 268 0.0 2.0 0.00 0.00 0.00 47 1011.2
20260904201507 97 255 0.0 6.0 0.00 0.00 0.00 47 1011.5
20260904200020 100 30 0.0 5.0 0.00 0.00 0.00 45 1011.5
20260904194504 99 293 0.0 15.0 0.00 0.00 0.00 45 1011.6
20260904193006 98 248 2.0 9.0 0.00 0.00 0.00 46 1011.7
20260904191502 98 165 0.0 9.0 0.00 0.00 0.00 47 1011.7
20260904190100 99 272 0.0 10.0 0.00 0.00 0.00 47 1011.9
20260904184600 99 238 1.0 9.0 0.00 0.00 0.00 47 1012.1
20260904183057 99 344 3.0 8.0 0.00 0.00 0.00 45 1012.3
20260904181554 99 224 2.0 11.0 0.00 0.00 0.00 46 1012.5
20260904180054 98 237 0.0 5.0 0.00 0.00 0.00 46 1012.8
20260904174552 98 240 1.0 8.0 0.00 0.00 0.00 48 1013.1
20260904173047 97 270 1.0 6.0 0.00 0.00 0.00 48 1013.3
20260904171613 96 235 0.0 7.0 0.00 0.00 0.00 50 1013.4
20260904170048 96 296 0.0 8.0 0.00 0.00 0.00 51 1013.5
20260904164546 97 198 0.0 4.0 0.00 0.00 0.00 51 1013.5
20260904163051 96 275 0.0 4.0 0.00 0.00 0.00 51 1013.5
20260904161544 96 246 0.0 3.0 0.00 0.00 0.00 53 1013.6
20260904160038 95 238 0.0 2.0 0.00 0.00 0.00 54 1013.6
20260904154536 94 342 0.0 3.0 0.00 0.00 0.00 55 1013.6
20260904153054 94 6 0.0 4.0 0.00 0.00 0.00 55 1013.6
20260904151538 94 317 0.0 0.0 0.00 0.00 0.00 57 1013.7
20260904150035 94 260 0.0 0.0 0.00 0.00 0.00 57 1013.5
20260904144526 93 229 0.0 1.0 0.00 0.00 0.00 58 1013.5
20260904143023 91 270 0.0 1.0 0.00 0.00 0.00 60 1013.5
20260904141521 91 346 0.0 0.0 0.00 0.00 0.00 62 1013.5
20260904140018 90 235 0.0 2.0 0.00 0.00 0.00 63 1013.4
20260904134520 89 232 0.0 1.0 0.00 0.00 0.00 66 1013.5
20260904133011 87 110 0.0 0.0 0.00 0.00 0.00 68 1013.7
20260904131506 86 221 0.0 3.0 0.00 0.00 0.00 71 1013.7
20260904130002 85 225 0.0 0.0 0.00 0.00 0.00 74 1013.7
20260904124600 84 224 0.0 0.0 0.00 0.00 0.00 76 1013.8
20260904123059 82 238 0.0 0.0 0.00 0.00 0.00 79 1013.6
20260904121555 81 238 0.0 0.0 0.00 0.00 0.00 80 1013.3
20260904120105 79 228 0.0 0.0 0.00 0.00 0.00 82 1013.1
20260904114553 79 187 0.0 0.0 0.00 0.00 0.00 84 1013.1
20260904113051 78 187 0.0 0.0 0.00 0.00 0.00 84 1012.8
20260904111550 78 187 0.0 0.0 0.00 0.00 0.00 83 1012.7
20260904110049 78 216 0.0 0.0 0.00 0.00 0.00 83 1012.6
20260904104549 79 217 0.0 0.0 0.00 0.00 0.00 83 1012.5
20260904103046 79 216 0.0 0.0 0.00 0.00 0.00 82 1012.5
20260904101545 79 216 0.0 0.0 0.00 0.00 0.00 82 1012.5
20260904100044 79 216 0.0 0.0 0.00 0.00 0.00 81 1012.4
20260904094543 79 208 0.0 0.0 0.00 0.00 0.00 82 1012.4
20260904093042 79 207 0.0 0.0 0.00 0.00 0.00 83 1012.3
20260904091541 79 208 0.0 0.0 0.00 0.00 0.00 84 1012.4
20260904090039 79 208 0.0 0.0 0.00 0.00 0.00 85 1012.4
20260904084547 79 208 0.0 0.0 0.00 0.00 0.00 85 1012.4
20260904083037 80 208 0.0 0.0 0.00 0.00 0.00 84 1012.5
20260904081536 80 208 0.0 0.0 0.00 0.00 0.00 84 1012.5
20260904080050 80 208 0.0 0.0 0.00 0.00 0.00 83 1012.5
20260904074536 80 207 0.0 0.0 0.00 0.00 0.00 81 1012.5
20260904073029 80 207 0.0 0.0 0.00 0.00 0.00 79 1012.4
20260904071532 81 208 0.0 0.0 0.00 0.00 0.00 78 1012.5
20260904070041 81 208 0.0 0.0 0.00 0.00 0.00 79 1012.6
20260904064527 80 249 0.0 0.0 0.00 0.00 0.00 79 1012.6
20260904063028 81 249 0.0 0.0 0.00 0.00 0.00 78 1012.8
20260904061522 81 249 0.0 0.0 0.00 0.00 0.00 77 1012.9
20260904060021 81 248 0.0 0.0 0.00 0.00 0.00 77 1012.9
20260904054531 81 249 0.0 0.0 0.00 0.00 0.00 77 1012.9
20260904053025 81 249 0.0 0.0 0.00 0.00 0.00 77 1012.9
20260904051520 82 249 0.0 0.0 0.00 0.00 0.00 77 1013.0
20260904050016 82 249 0.0 0.0 0.00 0.00 0.00 77 1013.0
20260904044514 82 249 0.0 0.0 0.00 0.00 0.00 76 1013.0
20260904043012 82 249 0.0 0.0 0.00 0.00 0.00 76 1013.0
20260904041510 83 249 0.0 0.0 0.00 0.00 0.00 75 1012.9
20260904040010 83 248 0.0 0.0 0.00 0.00 0.00 74 1012.9
20260904034508 84 249 0.0 0.0 0.00 0.00 0.00 73 1012.9
20260904033008 84 156 0.0 0.0 0.00 0.00 0.00 72 1012.8
20260904031506 84 164 0.0 0.0 0.00 0.00 0.00 71 1012.9
20260904030005 85 160 0.0 0.0 0.00 0.00 0.00 70 1012.9
20260904024504 85 224 0.0 0.0 0.00 0.00 0.00 70 1013.0
20260904023004 85 224 0.0 0.0 0.00 0.00 0.00 69 1013.0
20260904021502 85 224 0.0 0.0 0.00 0.00 0.00 68 1013.1